TimeCST,TemperatureF,Dew PointF,Humidity,Sea Level PressureIn,VisibilityMPH,Wind Direction,Wind SpeedMPH,Gust SpeedMPH,PrecipitationIn,Events,Conditions,WindDirDegrees,DateUTC
12:15 AM,32.2,32.0,99,29.84,1.5,NW,3.5,-,N/A,Snow,Light Snow,320,2012-12-29 06:15:00
12:35 AM,32.2,32.0,99,29.84,1.5,NW,3.5,-,0.01,Snow,Light Snow,320,2012-12-29 06:35:00
12:55 AM,32.2,32.0,99,29.84,1.5,NW,3.5,-,0.02,Snow,Light Snow,320,2012-12-29 06:55:00
1:15 AM,32.2,32.0,99,29.84,1.5,NW,3.5,-,0.01,Snow,Light Snow,310,2012-12-29 07:15:00
1:35 AM,32.2,32.0,99,29.85,1.5,Calm,Calm,-,0.01,Snow,Light Snow,0,2012-12-29 07:35:00
1:55 AM,32.0,32.0,100,29.85,1.5,WNW,3.5,-,0.02,Snow,Light Snow,300,2012-12-29 07:55:00
2:15 AM,32.0,32.0,100,29.86,1.2,WNW,3.5,-,0.01,Snow,Light Snow,300,2012-12-29 08:15:00
2:35 AM,32.2,32.0,99,29.86,1.8,NW,3.5,-,0.01,Snow,Light Snow,310,2012-12-29 08:35:00
2:55 AM,32.2,32.0,99,29.86,2.5,NW,4.6,-,0.01,Snow,Light Snow,310,2012-12-29 08:55:00
3:15 AM,32.0,32.0,100,29.87,4.0,WNW,3.5,-,N/A,Snow,Light Snow,300,2012-12-29 09:15:00
3:35 AM,32.0,31.8,99,29.87,3.0,WNW,3.5,-,N/A,Snow,Light Snow,290,2012-12-29 09:35:00
3:55 AM,32.2,31.8,99,29.87,4.0,WNW,4.6,-,N/A,Snow,Light Snow,300,2012-12-29 09:55:00
4:15 AM,32.2,31.8,99,29.88,5.0,WNW,4.6,-,N/A,Snow,Light Snow,300,2012-12-29 10:15:00
4:35 AM,32.5,32.0,98,29.89,5.0,WNW,3.5,-,N/A,,Overcast,290,2012-12-29 10:35:00
4:55 AM,32.9,32.0,96,29.89,5.0,WNW,3.5,-,N/A,,Overcast,290,2012-12-29 10:55:00
5:15 AM,33.1,32.0,96,29.89,5.0,WNW,4.6,-,N/A,,Overcast,300,2012-12-29 11:15:00
5:35 AM,33.3,32.2,96,29.90,5.0,WNW,4.6,-,N/A,,Overcast,290,2012-12-29 11:35:00
5:55 AM,33.4,32.2,95,29.91,5.0,WNW,4.6,-,N/A,,Overcast,290,2012-12-29 11:55:00
6:15 AM,33.4,32.2,95,29.92,7.0,WNW,4.6,-,N/A,,Overcast,300,2012-12-29 12:15:00
6:35 AM,33.8,32.0,93,29.93,7.0,WNW,3.5,-,N/A,,Overcast,290,2012-12-29 12:35:00
6:55 AM,33.8,32.0,93,29.94,7.0,WNW,3.5,-,N/A,,Overcast,290,2012-12-29 12:55:00
7:15 AM,33.8,32.0,93,29.95,5.0,West,4.6,-,N/A,,Overcast,280,2012-12-29 13:15:00
7:35 AM,33.8,32.0,93,29.96,5.0,West,5.8,-,N/A,,Overcast,270,2012-12-29 13:35:00
7:55 AM,33.4,31.8,94,29.97,5.0,West,5.8,-,0.01,,Overcast,280,2012-12-29 13:55:00
8:15 AM,33.3,30.0,88,29.98,7.0,WNW,6.9,-,N/A,,Overcast,290,2012-12-29 14:15:00
8:35 AM,33.1,30.0,89,29.99,7.0,WNW,8.1,-,N/A,,Overcast,290,2012-12-29 14:35:00
8:55 AM,32.9,29.3,87,30.01,7.0,West,6.9,-,N/A,,Overcast,280,2012-12-29 14:55:00
9:15 AM,32.4,28.4,85,30.02,7.0,West,8.1,-,N/A,,Overcast,280,2012-12-29 15:15:00
9:35 AM,32.4,27.5,82,30.03,10.0,West,9.2,-,N/A,,Overcast,280,2012-12-29 15:35:00
9:55 AM,32.0,27.1,82,30.04,10.0,West,11.5,-,N/A,,Overcast,280,2012-12-29 15:55:00
10:15 AM,32.0,27.0,82,30.05,10.0,West,12.7,-,N/A,,Overcast,270,2012-12-29 16:15:00
10:35 AM,32.0,25.5,77,30.05,10.0,West,16.1,-,N/A,,Overcast,280,2012-12-29 16:35:00
10:55 AM,32.0,24.6,74,30.05,10.0,West,12.7,19.6,N/A,,Overcast,280,2012-12-29 16:55:00
11:15 AM,32.0,24.3,73,30.05,7.0,WNW,15.0,20.7,N/A,,Overcast,290,2012-12-29 17:15:00
11:35 AM,31.8,24.1,73,30.06,7.0,West,16.1,-,N/A,,Overcast,280,2012-12-29 17:35:00
11:55 AM,31.5,23.5,73,30.06,10.0,West,16.1,-,0.02,,Overcast,270,2012-12-29 17:55:00
12:15 PM,31.6,23.4,71,30.06,10.0,WNW,12.7,-,N/A,,Overcast,290,2012-12-29 18:15:00
12:35 PM,31.1,23.4,73,30.06,10.0,West,19.6,25.3,N/A,,Overcast,270,2012-12-29 18:35:00
12:55 PM,31.1,22.1,69,30.07,7.0,WNW,18.4,27.6,N/A,,Overcast,290,2012-12-29 18:55:00
1:15 PM,31.1,22.5,70,30.08,10.0,West,19.6,24.2,N/A,,Overcast,280,2012-12-29 19:15:00
1:35 PM,30.9,22.8,72,30.08,10.0,West,15.0,-,N/A,,Overcast,280,2012-12-29 19:35:00
1:55 PM,30.2,21.7,71,30.09,7.0,WNW,19.6,24.2,N/A,,Overcast,290,2012-12-29 19:55:00
2:15 PM,29.7,21.4,71,30.11,10.0,West,15.0,23.0,N/A,,Overcast,280,2012-12-29 20:15:00
2:35 PM,29.3,21.0,71,30.12,7.0,West,18.4,26.5,N/A,Snow,Light Snow,270,2012-12-29 20:35:00
2:55 PM,29.1,21.4,73,30.13,10.0,West,19.6,24.2,N/A,,Overcast,280,2012-12-29 20:55:00
3:15 PM,28.8,21.0,73,30.14,7.0,WNW,17.3,-,N/A,Snow,Light Snow,290,2012-12-29 21:15:00
3:35 PM,28.4,21.2,74,30.15,5.0,West,11.5,20.7,N/A,Snow,Light Snow,270,2012-12-29 21:35:00
3:55 PM,28.2,22.5,79,30.16,3.0,West,12.7,-,N/A,Snow,Light Snow,270,2012-12-29 21:55:00
4:15 PM,27.5,23.0,83,30.17,2.5,West,10.4,-,N/A,Snow,Light Snow,260,2012-12-29 22:15:00
4:35 PM,27.5,23.0,83,30.17,5.0,West,11.5,-,N/A,Snow,Light Snow,270,2012-12-29 22:35:00
4:55 PM,28.0,21.7,77,30.18,10.0,West,13.8,-,N/A,,Overcast,270,2012-12-29 22:55:00
5:15 PM,28.4,20.3,72,30.20,10.0,West,12.7,20.7,N/A,,Overcast,280,2012-12-29 23:15:00
5:35 PM,28.2,21.0,74,30.21,10.0,West,10.4,-,N/A,,Overcast,270,2012-12-29 23:35:00
5:55 PM,28.2,21.2,75,30.23,10.0,West,10.4,-,N/A,,Overcast,270,2012-12-29 23:55:00
6:15 PM,28.4,20.3,72,30.23,10.0,West,9.2,-,N/A,,Overcast,280,2012-12-30 00:15:00
6:35 PM,28.2,20.1,72,30.24,10.0,West,9.2,-,N/A,,Overcast,270,2012-12-30 00:35:00
6:55 PM,28.4,19.8,70,30.25,10.0,West,11.5,-,N/A,,Overcast,280,2012-12-30 00:55:00
7:15 PM,28.0,19.4,70,30.26,10.0,West,10.4,-,N/A,,Overcast,280,2012-12-30 01:15:00
7:35 PM,27.5,19.8,73,30.27,10.0,West,8.1,-,N/A,,Overcast,270,2012-12-30 01:35:00
7:55 PM,27.3,19.6,73,30.28,10.0,West,10.4,-,N/A,,Overcast,270,2012-12-30 01:55:00
8:15 PM,26.6,19.6,75,30.29,10.0,West,9.2,-,N/A,,Overcast,270,2012-12-30 02:15:00
8:35 PM,27.1,19.6,73,30.29,10.0,West,13.8,20.7,N/A,,Overcast,270,2012-12-30 02:35:00
8:55 PM,26.4,18.9,73,30.31,10.0,West,11.5,-,N/A,,Mostly Cloudy,260,2012-12-30 02:55:00
9:15 PM,24.4,17.4,75,30.32,10.0,West,11.5,-,N/A,,Scattered Clouds,260,2012-12-30 03:15:00
9:35 PM,23.4,16.9,76,30.32,10.0,West,8.1,-,N/A,,Clear,270,2012-12-30 03:35:00
9:55 PM,21.7,16.0,78,30.32,10.0,West,6.9,-,N/A,,Clear,270,2012-12-30 03:55:00
10:15 PM,19.2,14.4,81,30.33,10.0,WSW,8.1,-,N/A,,Clear,250,2012-12-30 04:15:00
10:35 PM,20.5,15.3,80,30.34,10.0,West,8.1,-,N/A,,Clear,260,2012-12-30 04:35:00
10:55 PM,19.4,14.0,80,30.35,10.0,WSW,5.8,-,N/A,,Clear,250,2012-12-30 04:55:00
11:15 PM,16.5,12.2,83,30.35,10.0,WSW,6.9,-,N/A,,Clear,240,2012-12-30 05:15:00
11:35 PM,17.8,13.5,83,30.35,10.0,SSW,8.1,-,N/A,,Clear,210,2012-12-30 05:35:00
11:55 PM,16.3,13.6,89,30.34,10.0,SSW,6.9,-,N/A,,Clear,200,2012-12-30 05:55:00